Al-Jouf, Saudi Arabia

5:11 PM +03 on September 19, 2017 (GMT +0300)
Al Jouf

Weather History for OESK - January, 2013

Change the Weather History Date:

Tuesday, January 8, 2013

  Actual Average Record
Temperature  
Mean Temperature 50 °F -  
Max Temperature 61 °F 59 °F 77 °F (2003)
Min Temperature 38 °F 40 °F 28 °F (2005)
Degree Days  
Heating Degree Days 16    
Moisture  
Dew Point 31 °F    
Average Humidity 50    
Maximum Humidity 75    
Minimum Humidity 25    
Precipitation  
Precipitation 0.00 in - - ()
Sea Level Pressure  
Sea Level Pressure 29.95 in    
Wind  
Wind Speed 8 mph ()    
Max Wind Speed 18 mph    
Max Gust Speed -    
Visibility 6.1 miles    
Events      
Averages and records for this station are not official NWS values.
T = Trace of Precipitation, MM = Missing Value Source: Averaged Metar Reports

Daily Weather History Graph

Daily Weather History Graph

Search for Another Location

Airport or City:

Trip Planner

Search our weather history database for the weather conditions in past years. The results will help you decide how hot, cold, wet, or windy it might be!

Date:

Astronomy

Jan. 08, 2013 Rise Set
Actual Time 7:16 AM +03 5:36 PM +03
Civil Twilight 6:50 AM +03 6:02 PM +03
Nautical Twilight 6:20 AM +03 6:32 PM +03
Astronomical Twilight 5:51 AM +03 7:01 PM +03
Moon 3:26 AM +03 (1/8) 2:18 PM +03 (1/8)
Length of Visible Light 11h 12m
Length of Day
10h 20m
Waning Crescent, 16% of the Moon is Illuminated
Jan 8
Waning Crescent
Jan 11
New
Jan 19
First Quarter
Jan 27
Full
Feb 3
Last Quarter

Hourly Weather History & Observations

Time (+03) Temp. Windchill Dew Point Humidity Pressure Visibility Wind Dir Wind Speed Gust Speed Precip Events Conditions
12:00 AM 46 °F - 32 °F 46% 30.00 in 6 mi South 3.5 mph - -  
12:00 AM 46.4 °F 45.2 °F 32.0 °F 57% 29.98 in - South 3.5 mph - N/A   Clear
1:00 AM 44.6 °F 41.4 °F 32.0 °F 61% 30.01 in - SW 5.8 mph - N/A   Clear
2:00 AM 44.6 °F 38.4 °F 32.0 °F 61% 29.98 in - West 12.7 mph - N/A   Clear
3:00 AM 41.0 °F 39.0 °F 32.0 °F 70% 29.98 in - SSW 3.5 mph - N/A   Clear
4:00 AM 42.8 °F 38.0 °F 32.0 °F 66% 29.98 in - WSW 8.1 mph - N/A   Clear
5:00 AM 39.2 °F 33.6 °F 30.2 °F 70% 29.98 in - South 8.1 mph - N/A   Clear
6:00 AM 38 °F - 30 °F 64% 30.01 in 6 mi South 6.9 mph - -  
6:00 AM 37.4 °F 32.1 °F 30.2 °F 75% 29.98 in - South 6.9 mph - N/A   Clear
7:00 AM 37.4 °F 30.3 °F 30.2 °F 75% 29.98 in - South 10.4 mph - N/A   Clear
8:00 AM 39.2 °F 33.0 °F 32.0 °F 75% 30.01 in - South 9.2 mph - N/A   Clear
9:00 AM 44 °F - 34 °F 57% 30.05 in 6 mi SSW 11.5 mph - -   Scattered Clouds
9:00 AM 44.6 °F 38.8 °F 33.8 °F 66% 30.04 in 6.2 mi SSW 11.5 mph - N/A   Partly Cloudy
10:00 AM 50.0 °F - 33.8 °F 54% 30.04 in - SSW 13.8 mph - N/A   Clear
11:00 AM 53.6 °F - 32.0 °F 44% 30.04 in - SW 12.7 mph - N/A   Clear
12:00 PM 58 °F - 32 °F 25% 29.99 in 6 mi WSW 15.0 mph - -   Partly Cloudy
12:00 PM 57.2 °F - 32.0 °F 38% 29.98 in 6.2 mi WSW 15.0 mph - N/A   Scattered Clouds
1:00 PM 59.0 °F - 32.0 °F 36% 29.95 in 6.2 mi WSW 15.0 mph - N/A   Mostly Cloudy
2:00 PM 60.8 °F - 32.0 °F 34% 29.92 in 6.2 mi WSW 16.1 mph - N/A   Scattered Clouds
3:00 PM 60.8 °F - 30.2 °F 31% 29.89 in 6.2 mi SW 15.0 mph - N/A   Scattered Clouds
4:00 PM 60.8 °F - 30.2 °F 31% 29.89 in 6.2 mi SW 18.4 mph - N/A   Partly Cloudy
5:00 PM 60.8 °F - 30.2 °F 31% 29.89 in - SW 18.4 mph - N/A   Clear
6:00 PM 55 °F - 30 °F 26% 29.91 in 6 mi SSW 9.2 mph - -  
6:00 PM 55.4 °F - 30.2 °F 38% 29.89 in - SSW 9.2 mph - N/A   Clear
7:00 PM 53.6 °F - 30.2 °F 41% 29.89 in - SSW 9.2 mph - N/A   Clear
8:00 PM 51.8 °F - 30.2 °F 44% 29.89 in - South 10.4 mph - N/A   Clear
9:00 PM 48 °F - 30 °F 38% 29.88 in 6 mi South 8.1 mph - -  
9:00 PM 48.2 °F - 30.2 °F 50% 29.86 in - South 8.1 mph - N/A   Clear
10:00 PM 48.2 °F - 32.0 °F 54% 29.86 in - SSW 11.5 mph - N/A   Clear
11:00 PM 50.0 °F - 32.0 °F 50% 29.86 in - SW 13.8 mph - N/A   Clear